Data supplied by UK-AIR on 22/3/2017
All Data GMT hour ending 
Status: R =Ratified P=Provisional,P*=As supplied
,,Swansea Roadside,,,,,,,,,,,,,,,,,,,,,,,
Date,time,"PM<sub>10</sub> particulate matter (Hourly measured)",status,unit,"Nitric oxide",status,unit,"Nitrogen dioxide",status,unit,"Nitrogen oxides as nitrogen dioxide",status,unit,"PM<sub>2.5</sub> particulate matter (Hourly measured)",status,unit
 
01-01-2016,01:00,26.766,R,ugm-3 (Ref.eq),30.82411,R,ugm-3,70.25441,R,ugm-3,117.51739,R,ugm-3,25.530,R,ugm-3 (BAM)
01-01-2016,02:00,17.608,R,ugm-3 (Ref.eq),32.50183,R,ugm-3,58.90404,R,ugm-3,108.73949,R,ugm-3,14.300,R,ugm-3 (BAM)
01-01-2016,03:00,12.725,R,ugm-3 (Ref.eq),37.93102,R,ugm-3,68.34319,R,ugm-3,126.50327,R,ugm-3,13.560,R,ugm-3 (BAM)
01-01-2016,04:00,15.374,R,ugm-3 (Ref.eq),19.95399,R,ugm-3,47.66715,R,ugm-3,78.26285,R,ugm-3,9.660,R,ugm-3 (BAM)
01-01-2016,05:00,12.325,R,ugm-3 (Ref.eq),20.49345,R,ugm-3,53.02598,R,ugm-3,84.44883,R,ugm-3,8.930,R,ugm-3 (BAM)
01-01-2016,06:00,12.325,R,ugm-3 (Ref.eq),14.81294,R,ugm-3,42.95093,R,ugm-3,65.66378,R,ugm-3,11.120,R,ugm-3 (BAM)
01-01-2016,07:00,14.966,R,ugm-3 (Ref.eq),4.38644,R,ugm-3,32.20746,R,ugm-3,38.93324,R,ugm-3,10.630,R,ugm-3 (BAM)
01-01-2016,08:00,21.882,R,ugm-3 (Ref.eq),5.10551,R,ugm-3,48.41446,R,ugm-3,56.24280,R,ugm-3,8.680,R,ugm-3 (BAM)
01-01-2016,09:00,20.049,R,ugm-3 (Ref.eq),1.33025,R,ugm-3,13.51086,R,ugm-3,15.55054,R,ugm-3,6.480,R,ugm-3 (BAM)
01-01-2016,10:00,18.833,R,ugm-3 (Ref.eq),3.16378,R,ugm-3,21.36932,R,ugm-3,26.22038,R,ugm-3,6.970,R,ugm-3 (BAM)
01-01-2016,11:00,21.882,R,ugm-3 (Ref.eq),4.02691,R,ugm-3,27.70734,R,ugm-3,33.88185,R,ugm-3,9.410,R,ugm-3 (BAM)
01-01-2016,12:00,18.624,R,ugm-3 (Ref.eq),3.48745,R,ugm-3,16.95670,R,ugm-3,22.30405,R,ugm-3,10.150,R,ugm-3 (BAM)
01-01-2016,13:00,21.066,R,ugm-3 (Ref.eq),4.63840,R,ugm-3,20.98108,R,ugm-3,28.09319,R,ugm-3,9.410,R,ugm-3 (BAM)
01-01-2016,14:00,15.574,R,ugm-3 (Ref.eq),5.35715,R,ugm-3,19.76521,R,ugm-3,27.97940,R,ugm-3,8.190,R,ugm-3 (BAM)
01-01-2016,15:00,9.475,R,ugm-3 (Ref.eq),3.55948,R,ugm-3,16.78984,R,ugm-3,22.24763,R,ugm-3,6.730,R,ugm-3 (BAM)
01-01-2016,16:00,9.883,R,ugm-3 (Ref.eq),5.89599,R,ugm-3,19.73365,R,ugm-3,28.77404,R,ugm-3,5.260,R,ugm-3 (BAM)
01-01-2016,17:00,10.900,R,ugm-3 (Ref.eq),4.88973,R,ugm-3,21.22014,R,ugm-3,28.71762,R,ugm-3,5.750,R,ugm-3 (BAM)
01-01-2016,18:00,18.216,R,ugm-3 (Ref.eq),3.99074,R,ugm-3,23.50654,R,ugm-3,29.62558,R,ugm-3,9.900,R,ugm-3 (BAM)
01-01-2016,19:00,17.816,R,ugm-3 (Ref.eq),3.66706,R,ugm-3,19.00786,R,ugm-3,24.63061,R,ugm-3,9.900,R,ugm-3 (BAM)
01-01-2016,20:00,20.458,R,ugm-3 (Ref.eq),2.91245,R,ugm-3,16.58998,R,ugm-3,21.05567,R,ugm-3,9.660,R,ugm-3 (BAM)
01-01-2016,21:00,15.783,R,ugm-3 (Ref.eq),2.80424,R,ugm-3,16.64210,R,ugm-3,20.94188,R,ugm-3,9.660,R,ugm-3 (BAM)
01-01-2016,22:00,18.833,R,ugm-3 (Ref.eq),2.58877,R,ugm-3,16.80227,R,ugm-3,20.77166,R,ugm-3,9.170,R,ugm-3 (BAM)
01-01-2016,23:00,16.391,R,ugm-3 (Ref.eq),2.58846,R,ugm-3,19.18668,R,ugm-3,23.15559,R,ugm-3,7.700,R,ugm-3 (BAM)
01-01-2016,24:00,12.525,R,ugm-3 (Ref.eq),2.12135,R,ugm-3,14.45420,R,ugm-3,17.70688,R,ugm-3,6.000,R,ugm-3 (BAM)
02-01-2016,01:00,12.116,R,ugm-3 (Ref.eq),1.86929,R,ugm-3,14.76514,R,ugm-3,17.63134,R,ugm-3,6.240,R,ugm-3 (BAM)
02-01-2016,02:00,18.624,R,ugm-3 (Ref.eq),2.30096,R,ugm-3,18.88976,R,ugm-3,22.41785,R,ugm-3,6.970,R,ugm-3 (BAM)
02-01-2016,03:00,20.458,R,ugm-3 (Ref.eq),2.22924,R,ugm-3,25.41234,R,ugm-3,28.83046,R,ugm-3,10.880,R,ugm-3 (BAM)
02-01-2016,04:00,20.458,R,ugm-3 (Ref.eq),1.47431,R,ugm-3,18.28446,R,ugm-3,20.54503,R,ugm-3,13.560,R,ugm-3 (BAM)
02-01-2016,05:00,10.691,R,ugm-3 (Ref.eq),0.89868,R,ugm-3,10.48385,R,ugm-3,11.86180,R,ugm-3,9.410,R,ugm-3 (BAM)
02-01-2016,06:00,9.883,R,ugm-3 (Ref.eq),1.90556,R,ugm-3,13.13935,R,ugm-3,16.06118,R,ugm-3,4.530,R,ugm-3 (BAM)
02-01-2016,07:00,13.341,R,ugm-3 (Ref.eq),2.91245,R,ugm-3,14.09273,R,ugm-3,18.55842,R,ugm-3,3.800,R,ugm-3 (BAM)
02-01-2016,08:00,8.250,R,ugm-3 (Ref.eq),10.10282,R,ugm-3,18.05018,R,ugm-3,33.54095,R,ugm-3,6.000,R,ugm-3 (BAM)
02-01-2016,09:00,9.883,R,ugm-3 (Ref.eq),19.63063,R,ugm-3,34.88304,R,ugm-3,64.98293,R,ugm-3,9.410,R,ugm-3 (BAM)
02-01-2016,10:00,10.283,R,ugm-3 (Ref.eq),36.06100,R,ugm-3,55.83066,R,ugm-3,111.12342,R,ugm-3,9.660,R,ugm-3 (BAM)
02-01-2016,11:00,7.441,R,ugm-3 (Ref.eq),22.32729,R,ugm-3,56.34368,R,ugm-3,90.57839,R,ugm-3,5.020,R,ugm-3 (BAM)
02-01-2016,12:00,4.591,R,ugm-3 (Ref.eq),11.82877,R,ugm-3,34.70088,R,ugm-3,52.83807,R,ugm-3,4.530,R,ugm-3 (BAM)
02-01-2016,13:00,3.367,R,ugm-3 (Ref.eq),11.00181,R,ugm-3,35.96839,R,ugm-3,52.83759,R,ugm-3,7.220,R,ugm-3 (BAM)
02-01-2016,14:00,6.216,R,ugm-3 (Ref.eq),10.42618,R,ugm-3,37.58875,R,ugm-3,53.57534,R,ugm-3,7.950,R,ugm-3 (BAM)
02-01-2016,15:00,12.725,R,ugm-3 (Ref.eq),10.96595,R,ugm-3,36.30738,R,ugm-3,53.12160,R,ugm-3,8.190,R,ugm-3 (BAM)
02-01-2016,16:00,14.966,R,ugm-3 (Ref.eq),4.02660,R,ugm-3,21.52136,R,ugm-3,27.69539,R,ugm-3,9.170,R,ugm-3 (BAM)
02-01-2016,17:00,6.216,R,ugm-3 (Ref.eq),4.63840,R,ugm-3,21.03702,R,ugm-3,28.14913,R,ugm-3,10.390,R,ugm-3 (BAM)
02-01-2016,18:00,16.999,R,ugm-3 (Ref.eq),5.46505,R,ugm-3,23.62942,R,ugm-3,32.00903,R,ugm-3,9.410,R,ugm-3 (BAM)
02-01-2016,19:00,12.725,R,ugm-3 (Ref.eq),4.17035,R,ugm-3,15.00165,R,ugm-3,21.39609,R,ugm-3,7.460,R,ugm-3 (BAM)
02-01-2016,20:00,6.825,R,ugm-3 (Ref.eq),3.05620,R,ugm-3,10.86396,R,ugm-3,15.55006,R,ugm-3,4.040,R,ugm-3 (BAM)
02-01-2016,21:00,6.625,R,ugm-3 (Ref.eq),1.86939,R,ugm-3,7.74658,R,ugm-3,10.61294,R,ugm-3,3.560,R,ugm-3 (BAM)
02-01-2016,22:00,7.441,R,ugm-3 (Ref.eq),2.01345,R,ugm-3,7.46927,R,ugm-3,10.55652,R,ugm-3,5.020,R,ugm-3 (BAM)
02-01-2016,23:00,14.149,R,ugm-3 (Ref.eq),1.97759,R,ugm-3,7.75136,R,ugm-3,10.78363,R,ugm-3,3.800,R,ugm-3 (BAM)
02-01-2016,24:00,9.266,R,ugm-3 (Ref.eq),3.99105,R,ugm-3,11.07672,R,ugm-3,17.19624,R,ugm-3,4.040,R,ugm-3 (BAM)
03-01-2016,01:00,12.933,R,ugm-3 (Ref.eq),1.96575,R,ugm-3,5.69543,R,ugm-3,8.70953,R,ugm-3,4.530,R,ugm-3 (BAM)
03-01-2016,02:00,11.300,R,ugm-3 (Ref.eq),6.86701,R,ugm-3,22.52877,R,ugm-3,33.05804,R,ugm-3,4.290,R,ugm-3 (BAM)
03-01-2016,03:00,13.949,R,ugm-3 (Ref.eq),5.78841,R,ugm-3,24.97821,R,ugm-3,33.85364,R,ugm-3,5.020,R,ugm-3 (BAM)
03-01-2016,04:00,16.391,R,ugm-3 (Ref.eq),1.94142,R,ugm-3,8.89456,R,ugm-3,11.87137,R,ugm-3,4.290,R,ugm-3 (BAM)
03-01-2016,05:00,22.291,R,ugm-3 (Ref.eq),3.37956,R,ugm-3,26.62678,R,ugm-3,31.80870,R,ugm-3,6.480,R,ugm-3 (BAM)
03-01-2016,06:00,15.783,R,ugm-3 (Ref.eq),3.05589,R,ugm-3,28.94043,R,ugm-3,33.62605,R,ugm-3,8.930,R,ugm-3 (BAM)
03-01-2016,07:00,12.116,R,ugm-3 (Ref.eq),3.70292,R,ugm-3,26.01717,R,ugm-3,31.69491,R,ugm-3,7.950,R,ugm-3 (BAM)
03-01-2016,08:00,11.508,R,ugm-3 (Ref.eq),6.00450,R,ugm-3,27.31672,R,ugm-3,36.52349,R,ugm-3,6.970,R,ugm-3 (BAM)
03-01-2016,09:00,10.900,R,ugm-3 (Ref.eq),3.34339,R,ugm-3,24.97821,R,ugm-3,30.10466,R,ugm-3,7.950,R,ugm-3 (BAM)
03-01-2016,10:00,13.341,R,ugm-3 (Ref.eq),3.45159,R,ugm-3,13.79295,R,ugm-3,19.08532,R,ugm-3,5.260,R,ugm-3 (BAM)
03-01-2016,11:00,13.949,R,ugm-3 (Ref.eq),10.49884,R,ugm-3,30.30882,R,ugm-3,46.40681,R,ugm-3,2.580,R,ugm-3 (BAM)
03-01-2016,12:00,11.508,R,ugm-3 (Ref.eq),11.57713,R,ugm-3,31.89285,R,ugm-3,49.64420,R,ugm-3,5.020,R,ugm-3 (BAM)
03-01-2016,13:00,16.591,R,ugm-3 (Ref.eq),9.20414,R,ugm-3,26.61339,R,ugm-3,40.72621,R,ugm-3,6.970,R,ugm-3 (BAM)
03-01-2016,14:00,22.491,R,ugm-3 (Ref.eq),7.87358,R,ugm-3,18.25912,R,ugm-3,30.33177,R,ugm-3,8.930,R,ugm-3 (BAM)
03-01-2016,15:00,16.799,R,ugm-3 (Ref.eq),4.31410,R,ugm-3,16.73055,R,ugm-3,23.34541,R,ugm-3,9.170,R,ugm-3 (BAM)
03-01-2016,16:00,10.083,R,ugm-3 (Ref.eq),8.16140,R,ugm-3,33.49505,R,ugm-3,46.00901,R,ugm-3,7.700,R,ugm-3 (BAM)
03-01-2016,17:00,9.475,R,ugm-3 (Ref.eq),4.99762,R,ugm-3,27.26986,R,ugm-3,34.93277,R,ugm-3,3.800,R,ugm-3 (BAM)
03-01-2016,18:00,14.758,R,ugm-3 (Ref.eq),61.58824,R,ugm-3,94.20258,R,ugm-3,188.63657,R,ugm-3,5.020,R,ugm-3 (BAM)
03-01-2016,19:00,25.341,R,ugm-3 (Ref.eq),9.24000,R,ugm-3,25.99040,R,ugm-3,40.15820,R,ugm-3,8.930,R,ugm-3 (BAM)
03-01-2016,20:00,19.241,R,ugm-3 (Ref.eq),3.70323,R,ugm-3,16.58759,R,ugm-3,22.26580,R,ugm-3,6.730,R,ugm-3 (BAM)
03-01-2016,21:00,15.574,R,ugm-3 (Ref.eq),3.59565,R,ugm-3,13.28853,R,ugm-3,18.80179,R,ugm-3,6.730,R,ugm-3 (BAM)
03-01-2016,22:00,10.900,R,ugm-3 (Ref.eq),1.90556,R,ugm-3,10.08557,R,ugm-3,13.00739,R,ugm-3,7.950,R,ugm-3 (BAM)
03-01-2016,23:00,13.949,R,ugm-3 (Ref.eq),1.76150,R,ugm-3,6.72865,R,ugm-3,9.42958,R,ugm-3,6.730,R,ugm-3 (BAM)
03-01-2016,24:00,14.358,R,ugm-3 (Ref.eq),2.48057,R,ugm-3,11.19195,R,ugm-3,14.99543,R,ugm-3,7.220,R,ugm-3 (BAM)
04-01-2016,01:00,7.033,R,ugm-3 (Ref.eq),1.38991,R,ugm-3,4.68499,R,ugm-3,6.81615,R,ugm-3,3.560,R,ugm-3 (BAM)
04-01-2016,02:00,5.808,R,ugm-3 (Ref.eq),0.53946,R,ugm-3,3.37604,R,ugm-3,4.20320,R,ugm-3,0.140,R,ugm-3 (BAM)
04-01-2016,03:00,7.841,R,ugm-3 (Ref.eq),0.53915,R,ugm-3,2.58092,R,ugm-3,3.40760,R,ugm-3,5.750,R,ugm-3 (BAM)
04-01-2016,04:00,14.358,R,ugm-3 (Ref.eq),0.61118,R,ugm-3,2.47095,R,ugm-3,3.40808,R,ugm-3,6.970,R,ugm-3 (BAM)
04-01-2016,05:00,16.183,R,ugm-3 (Ref.eq),0.71907,R,ugm-3,2.58905,R,ugm-3,3.69160,R,ugm-3,4.770,R,ugm-3 (BAM)
04-01-2016,06:00,11.708,R,ugm-3 (Ref.eq),5.10551,R,ugm-3,15.85749,R,ugm-3,23.68583,R,ugm-3,7.460,R,ugm-3 (BAM)
04-01-2016,07:00,13.541,R,ugm-3 (Ref.eq),5.46505,R,ugm-3,13.03464,R,ugm-3,21.41426,R,ugm-3,8.680,R,ugm-3 (BAM)
04-01-2016,08:00,11.100,R,ugm-3 (Ref.eq),17.58101,R,ugm-3,34.33129,R,ugm-3,61.28845,R,ugm-3,6.730,R,ugm-3 (BAM)
04-01-2016,09:00,9.675,R,ugm-3 (Ref.eq),45.22928,R,ugm-3,67.99511,R,ugm-3,137.34571,R,ugm-3,6.730,R,ugm-3 (BAM)
04-01-2016,10:00,10.283,R,ugm-3 (Ref.eq),23.29801,R,ugm-3,50.38768,R,ugm-3,86.11079,R,ugm-3,6.970,R,ugm-3 (BAM)
04-01-2016,11:00,15.983,R,ugm-3 (Ref.eq),38.47016,R,ugm-3,61.65900,R,ugm-3,120.64576,R,ugm-3,4.770,R,ugm-3 (BAM)
04-01-2016,12:00,19.849,R,ugm-3 (Ref.eq),,,,,,,,,,6.970,R,ugm-3 (BAM)
04-01-2016,13:00,8.050,R,ugm-3 (Ref.eq),13.19488,R,ugm-3,30.03725,R,ugm-3,50.26911,R,ugm-3,9.410,R,ugm-3 (BAM)
04-01-2016,14:00,13.541,R,ugm-3 (Ref.eq),22.21878,R,ugm-3,38.18258,R,ugm-3,72.25090,R,ugm-3,7.700,R,ugm-3 (BAM)
04-01-2016,15:00,16.391,R,ugm-3 (Ref.eq),27.93578,R,ugm-3,50.43310,R,ugm-3,93.26737,R,ugm-3,8.190,R,ugm-3 (BAM)
04-01-2016,16:00,12.325,R,ugm-3 (Ref.eq),21.39244,R,ugm-3,39.96121,R,ugm-3,72.76250,R,ugm-3,8.680,R,ugm-3 (BAM)
04-01-2016,17:00,11.916,R,ugm-3 (Ref.eq),24.91575,R,ugm-3,43.13548,R,ugm-3,81.33910,R,ugm-3,10.630,R,ugm-3 (BAM)
04-01-2016,18:00,14.358,R,ugm-3 (Ref.eq),25.02333,R,ugm-3,61.31714,R,ugm-3,99.68572,R,ugm-3,11.370,R,ugm-3 (BAM)
04-01-2016,19:00,16.391,R,ugm-3 (Ref.eq),13.80605,R,ugm-3,34.15534,R,ugm-3,55.32432,R,ugm-3,8.190,R,ugm-3 (BAM)
04-01-2016,20:00,16.999,R,ugm-3 (Ref.eq),7.08279,R,ugm-3,24.52733,R,ugm-3,35.38747,R,ugm-3,7.700,R,ugm-3 (BAM)
04-01-2016,21:00,11.916,R,ugm-3 (Ref.eq),3.95457,R,ugm-3,14.61150,R,ugm-3,20.67508,R,ugm-3,6.480,R,ugm-3 (BAM)
04-01-2016,22:00,11.508,R,ugm-3 (Ref.eq),5.64497,R,ugm-3,16.84817,R,ugm-3,25.50367,R,ugm-3,6.240,R,ugm-3 (BAM)
04-01-2016,23:00,13.949,R,ugm-3 (Ref.eq),3.88316,R,ugm-3,13.13075,R,ugm-3,19.08484,R,ugm-3,6.730,R,ugm-3 (BAM)
04-01-2016,24:00,11.708,R,ugm-3 (Ref.eq),2.62463,R,ugm-3,14.37961,R,ugm-3,18.40399,R,ugm-3,6.970,R,ugm-3 (BAM)
05-01-2016,01:00,14.149,R,ugm-3 (Ref.eq),3.64336,R,ugm-3,15.61939,R,ugm-3,21.20580,R,ugm-3,5.260,R,ugm-3 (BAM)
05-01-2016,02:00,16.999,R,ugm-3 (Ref.eq),1.79767,R,ugm-3,11.89814,R,ugm-3,14.65453,R,ugm-3,4.040,R,ugm-3 (BAM)
05-01-2016,03:00,9.475,R,ugm-3 (Ref.eq),0.28750,R,ugm-3,3.02366,R,ugm-3,3.46449,R,ugm-3,5.020,R,ugm-3 (BAM)
05-01-2016,04:00,13.949,R,ugm-3 (Ref.eq),1.22235,R,ugm-3,6.70331,R,ugm-3,8.57756,R,ugm-3,7.460,R,ugm-3 (BAM)
05-01-2016,05:00,8.250,R,ugm-3 (Ref.eq),3.66706,R,ugm-3,9.03226,R,ugm-3,14.65501,R,ugm-3,8.190,R,ugm-3 (BAM)
05-01-2016,06:00,8.050,R,ugm-3 (Ref.eq),7.51436,R,ugm-3,15.79916,R,ugm-3,27.32102,R,ugm-3,5.750,R,ugm-3 (BAM)
05-01-2016,07:00,9.883,R,ugm-3 (Ref.eq),106.67409,R,ugm-3,81.47585,R,ugm-3,245.04050,R,ugm-3,8.190,R,ugm-3 (BAM)
05-01-2016,08:00,19.241,R,ugm-3 (Ref.eq),150.93234,R,ugm-3,113.81192,R,ugm-3,345.23828,R,ugm-3,12.830,R,ugm-3 (BAM)
05-01-2016,09:00,23.507,R,ugm-3 (Ref.eq),162.68908,R,ugm-3,116.00651,R,ugm-3,365.45963,R,ugm-3,12.590,R,ugm-3 (BAM)
05-01-2016,10:00,14.149,R,ugm-3 (Ref.eq),152.33462,R,ugm-3,115.80809,R,ugm-3,349.38458,R,ugm-3,11.610,R,ugm-3 (BAM)
05-01-2016,11:00,17.199,R,ugm-3 (Ref.eq),136.55097,R,ugm-3,121.26493,R,ugm-3,330.64017,R,ugm-3,12.100,R,ugm-3 (BAM)
05-01-2016,12:00,17.408,R,ugm-3 (Ref.eq),84.56257,R,ugm-3,92.43208,R,ugm-3,222.09289,R,ugm-3,11.120,R,ugm-3 (BAM)
05-01-2016,13:00,14.358,R,ugm-3 (Ref.eq),44.90592,R,ugm-3,63.20813,R,ugm-3,132.06291,R,ugm-3,7.220,R,ugm-3 (BAM)
05-01-2016,14:00,10.283,R,ugm-3 (Ref.eq),52.34825,R,ugm-3,64.69031,R,ugm-3,144.95650,R,ugm-3,6.000,R,ugm-3 (BAM)
05-01-2016,15:00,12.933,R,ugm-3 (Ref.eq),45.87663,R,ugm-3,66.37714,R,ugm-3,136.72032,R,ugm-3,7.220,R,ugm-3 (BAM)
05-01-2016,16:00,11.300,R,ugm-3 (Ref.eq),49.36408,R,ugm-3,60.85958,R,ugm-3,136.55011,R,ugm-3,7.700,R,ugm-3 (BAM)
05-01-2016,17:00,13.341,R,ugm-3 (Ref.eq),63.31420,R,ugm-3,72.41490,R,ugm-3,169.49531,R,ugm-3,9.170,R,ugm-3 (BAM)
05-01-2016,18:00,9.883,R,ugm-3 (Ref.eq),28.83477,R,ugm-3,56.38193,R,ugm-3,100.59463,R,ugm-3,9.410,R,ugm-3 (BAM)
05-01-2016,19:00,13.541,R,ugm-3 (Ref.eq),25.20326,R,ugm-3,43.94399,R,ugm-3,82.58844,R,ugm-3,10.390,R,ugm-3 (BAM)
05-01-2016,20:00,8.050,R,ugm-3 (Ref.eq),14.05770,R,ugm-3,31.66765,R,ugm-3,53.22248,R,ugm-3,9.660,R,ugm-3 (BAM)
05-01-2016,21:00,13.741,R,ugm-3 (Ref.eq),29.66142,R,ugm-3,52.61574,R,ugm-3,98.09595,R,ugm-3,8.680,R,ugm-3 (BAM)
05-01-2016,22:00,4.383,R,ugm-3 (Ref.eq),1.18649,R,ugm-3,15.61891,R,ugm-3,17.43818,R,ugm-3,6.970,R,ugm-3 (BAM)
05-01-2016,23:00,4.183,R,ugm-3 (Ref.eq),1.40228,R,ugm-3,14.37913,R,ugm-3,16.52926,R,ugm-3,4.290,R,ugm-3 (BAM)
05-01-2016,24:00,3.367,R,ugm-3 (Ref.eq),1.29407,R,ugm-3,14.14724,R,ugm-3,16.13146,R,ugm-3,6.730,R,ugm-3 (BAM)
06-01-2016,01:00,4.383,R,ugm-3 (Ref.eq),2.87627,R,ugm-3,21.96761,R,ugm-3,26.37784,R,ugm-3,8.190,R,ugm-3 (BAM)
06-01-2016,02:00,6.016,R,ugm-3 (Ref.eq),5.89630,R,ugm-3,27.74033,R,ugm-3,36.78120,R,ugm-3,6.730,R,ugm-3 (BAM)
06-01-2016,03:00,9.066,R,ugm-3 (Ref.eq),5.03379,R,ugm-3,22.18404,R,ugm-3,29.90242,R,ugm-3,7.950,R,ugm-3 (BAM)
06-01-2016,04:00,9.883,R,ugm-3 (Ref.eq),3.37956,R,ugm-3,16.70521,R,ugm-3,21.88713,R,ugm-3,8.440,R,ugm-3 (BAM)
06-01-2016,05:00,12.725,R,ugm-3 (Ref.eq),10.60642,R,ugm-3,25.80488,R,ugm-3,42.06783,R,ugm-3,4.770,R,ugm-3 (BAM)
06-01-2016,06:00,5.200,R,ugm-3 (Ref.eq),10.85806,R,ugm-3,21.95168,R,ugm-3,38.60047,R,ugm-3,6.240,R,ugm-3 (BAM)
06-01-2016,07:00,7.841,R,ugm-3 (Ref.eq),65.65070,R,ugm-3,55.21722,R,ugm-3,155.88023,R,ugm-3,11.120,R,ugm-3 (BAM)
06-01-2016,08:00,14.758,R,ugm-3 (Ref.eq),133.49509,R,ugm-3,82.51194,R,ugm-3,287.20156,R,ugm-3,16.490,R,ugm-3 (BAM)
06-01-2016,09:00,24.124,R,ugm-3 (Ref.eq),230.38941,R,ugm-3,133.31225,R,ugm-3,486.57108,R,ugm-3,19.670,R,ugm-3 (BAM)
06-01-2016,10:00,19.241,R,ugm-3 (Ref.eq),152.94611,R,ugm-3,94.92646,R,ugm-3,329.44056,R,ugm-3,18.940,R,ugm-3 (BAM)
06-01-2016,11:00,23.307,R,ugm-3 (Ref.eq),163.55221,R,ugm-3,96.17389,R,ugm-3,346.95045,R,ugm-3,23.570,R,ugm-3 (BAM)
06-01-2016,12:00,24.324,R,ugm-3 (Ref.eq),195.33466,R,ugm-3,106.84851,R,ugm-3,406.35748,R,ugm-3,21.380,R,ugm-3 (BAM)
06-01-2016,13:00,23.916,R,ugm-3 (Ref.eq),148.91889,R,ugm-3,96.04193,R,ugm-3,324.38104,R,ugm-3,18.690,R,ugm-3 (BAM)
06-01-2016,14:00,20.866,R,ugm-3 (Ref.eq),113.10984,R,ugm-3,78.23798,R,ugm-3,251.67066,R,ugm-3,17.470,R,ugm-3 (BAM)
06-01-2016,15:00,22.082,R,ugm-3 (Ref.eq),103.58203,R,ugm-3,81.59060,R,ugm-3,240.41416,R,ugm-3,13.810,R,ugm-3 (BAM)
06-01-2016,16:00,33.482,R,ugm-3 (Ref.eq),103.29390,R,ugm-3,90.33263,R,ugm-3,248.71441,R,ugm-3,17.710,R,ugm-3 (BAM)
06-01-2016,17:00,23.507,R,ugm-3 (Ref.eq),56.26726,R,ugm-3,65.68242,R,ugm-3,151.95769,R,ugm-3,9.900,R,ugm-3 (BAM)
06-01-2016,18:00,22.699,R,ugm-3 (Ref.eq),40.44744,R,ugm-3,61.28702,R,ugm-3,123.30557,R,ugm-3,15.030,R,ugm-3 (BAM)
06-01-2016,19:00,20.049,R,ugm-3 (Ref.eq),30.38080,R,ugm-3,54.20981,R,ugm-3,100.79305,R,ugm-3,15.030,R,ugm-3 (BAM)
06-01-2016,20:00,23.716,R,ugm-3 (Ref.eq),18.91125,R,ugm-3,42.46228,R,ugm-3,71.45913,R,ugm-3,11.370,R,ugm-3 (BAM)
06-01-2016,21:00,16.591,R,ugm-3 (Ref.eq),13.41066,R,ugm-3,38.56030,R,ugm-3,59.12303,R,ugm-3,12.590,R,ugm-3 (BAM)
06-01-2016,22:00,16.591,R,ugm-3 (Ref.eq),8.05350,R,ugm-3,36.20028,R,ugm-3,48.54881,R,ugm-3,13.810,R,ugm-3 (BAM)
06-01-2016,23:00,16.799,R,ugm-3 (Ref.eq),6.86701,R,ugm-3,39.04273,R,ugm-3,49.57200,R,ugm-3,13.810,R,ugm-3 (BAM)
06-01-2016,24:00,11.508,R,ugm-3 (Ref.eq),4.38644,R,ugm-3,27.49745,R,ugm-3,34.22323,R,ugm-3,12.340,R,ugm-3 (BAM)
07-01-2016,01:00,14.558,R,ugm-3 (Ref.eq),3.83503,R,ugm-3,24.21161,R,ugm-3,30.09191,R,ugm-3,10.880,R,ugm-3 (BAM)
07-01-2016,02:00,7.233,R,ugm-3 (Ref.eq),1.54603,R,ugm-3,11.84172,R,ugm-3,14.21227,R,ugm-3,6.970,R,ugm-3 (BAM)
07-01-2016,03:00,16.799,R,ugm-3 (Ref.eq),1.36611,R,ugm-3,12.57278,R,ugm-3,14.66744,R,ugm-3,7.460,R,ugm-3 (BAM)
07-01-2016,04:00,12.325,R,ugm-3 (Ref.eq),1.18649,R,ugm-3,9.26654,R,ugm-3,11.08581,R,ugm-3,5.750,R,ugm-3 (BAM)
07-01-2016,05:00,8.458,R,ugm-3 (Ref.eq),0.82696,R,ugm-3,2.19938,R,ugm-3,3.46736,R,ugm-3,-0.110,R,ugm-3 (BAM)
07-01-2016,06:00,5.000,R,ugm-3 (Ref.eq),1.51017,R,ugm-3,4.16495,R,ugm-3,6.48051,R,ugm-3,3.800,R,ugm-3 (BAM)
07-01-2016,07:00,8.658,R,ugm-3 (Ref.eq),1.97791,R,ugm-3,5.77910,R,ugm-3,8.81184,R,ugm-3,6.480,R,ugm-3 (BAM)
07-01-2016,08:00,9.066,R,ugm-3 (Ref.eq),3.30753,R,ugm-3,14.65549,R,ugm-3,19.72696,R,ugm-3,5.260,R,ugm-3 (BAM)
07-01-2016,09:00,7.441,R,ugm-3 (Ref.eq),3.99074,R,ugm-3,18.49674,R,ugm-3,24.61579,R,ugm-3,5.020,R,ugm-3 (BAM)
07-01-2016,10:00,7.841,R,ugm-3 (Ref.eq),4.13480,R,ugm-3,19.24214,R,ugm-3,25.58208,R,ugm-3,6.000,R,ugm-3 (BAM)
07-01-2016,11:00,8.658,R,ugm-3 (Ref.eq),6.04036,R,ugm-3,27.51944,R,ugm-3,36.78120,R,ugm-3,5.260,R,ugm-3 (BAM)
07-01-2016,12:00,10.900,R,ugm-3 (Ref.eq),6.57951,R,ugm-3,19.75708,R,ugm-3,29.84552,R,ugm-3,7.950,R,ugm-3 (BAM)
07-01-2016,13:00,11.916,R,ugm-3 (Ref.eq),4.67426,R,ugm-3,16.19792,R,ugm-3,23.36501,R,ugm-3,7.460,R,ugm-3 (BAM)
07-01-2016,14:00,15.783,R,ugm-3 (Ref.eq),5.28512,R,ugm-3,14.69278,R,ugm-3,22.79652,R,ugm-3,3.800,R,ugm-3 (BAM)
07-01-2016,15:00,10.691,R,ugm-3 (Ref.eq),4.92559,R,ugm-3,17.80251,R,ugm-3,25.35497,R,ugm-3,4.530,R,ugm-3 (BAM)
07-01-2016,16:00,15.374,R,ugm-3 (Ref.eq),5.10551,R,ugm-3,24.91701,R,ugm-3,32.74535,R,ugm-3,5.750,R,ugm-3 (BAM)
07-01-2016,17:00,20.258,R,ugm-3 (Ref.eq),9.31172,R,ugm-3,40.46802,R,ugm-3,54.74579,R,ugm-3,3.800,R,ugm-3 (BAM)
07-01-2016,18:00,21.274,R,ugm-3 (Ref.eq),27.39663,R,ugm-3,74.24899,R,ugm-3,116.25657,R,ugm-3,5.020,R,ugm-3 (BAM)
07-01-2016,19:00,31.240,R,ugm-3 (Ref.eq),160.35258,R,ugm-3,128.76480,R,ugm-3,374.63532,R,ugm-3,16.490,R,ugm-3 (BAM)
07-01-2016,20:00,29.207,R,ugm-3 (Ref.eq),146.22254,R,ugm-3,120.98284,R,ugm-3,345.18760,R,ugm-3,20.400,R,ugm-3 (BAM)
07-01-2016,21:00,33.482,R,ugm-3 (Ref.eq),146.86958,R,ugm-3,117.20469,R,ugm-3,342.40157,R,ugm-3,21.620,R,ugm-3 (BAM)
07-01-2016,22:00,20.666,R,ugm-3 (Ref.eq),75.89758,R,ugm-3,70.88633,R,ugm-3,187.26100,R,ugm-3,15.520,R,ugm-3 (BAM)
07-01-2016,23:00,58.906,R,ugm-3 (Ref.eq),113.54078,R,ugm-3,89.45910,R,ugm-3,263.55254,R,ugm-3,32.850,R,ugm-3 (BAM)
07-01-2016,24:00,20.049,R,ugm-3 (Ref.eq),83.98695,R,ugm-3,63.37117,R,ugm-3,192.14935,R,ugm-3,12.830,R,ugm-3 (BAM)
08-01-2016,01:00,14.358,R,ugm-3 (Ref.eq),6.90297,R,ugm-3,28.25719,R,ugm-3,38.84160,R,ugm-3,10.150,R,ugm-3 (BAM)
08-01-2016,02:00,22.491,R,ugm-3 (Ref.eq),0.43125,R,ugm-3,3.15084,R,ugm-3,3.81209,R,ugm-3,8.680,R,ugm-3 (BAM)
08-01-2016,03:00,20.258,R,ugm-3 (Ref.eq),0.32367,R,ugm-3,2.51924,R,ugm-3,3.01553,R,ugm-3,8.680,R,ugm-3 (BAM)
08-01-2016,04:00,16.391,R,ugm-3 (Ref.eq),0.28781,R,ugm-3,2.23284,R,ugm-3,2.67415,R,ugm-3,6.970,R,ugm-3 (BAM)
08-01-2016,05:00,18.833,R,ugm-3 (Ref.eq),0.86282,R,ugm-3,3.51326,R,ugm-3,4.83623,R,ugm-3,7.460,R,ugm-3 (BAM)
08-01-2016,06:00,18.424,R,ugm-3 (Ref.eq),1.97728,R,ugm-3,4.30791,R,ugm-3,7.33970,R,ugm-3,6.730,R,ugm-3 (BAM)
08-01-2016,07:00,16.591,R,ugm-3 (Ref.eq),6.57951,R,ugm-3,12.67031,R,ugm-3,22.75875,R,ugm-3,,,
08-01-2016,08:00,19.441,R,ugm-3 (Ref.eq),17.11358,R,ugm-3,29.06331,R,ugm-3,55.30376,R,ugm-3,8.930,R,ugm-3 (BAM)
08-01-2016,09:00,19.441,R,ugm-3 (Ref.eq),19.88227,R,ugm-3,34.94568,R,ugm-3,65.43141,R,ugm-3,9.170,R,ugm-3 (BAM)
08-01-2016,10:00,17.408,R,ugm-3 (Ref.eq),18.58789,R,ugm-3,36.47520,R,ugm-3,64.97623,R,ugm-3,9.900,R,ugm-3 (BAM)
08-01-2016,11:00,17.608,R,ugm-3 (Ref.eq),17.32967,R,ugm-3,29.75611,R,ugm-3,56.32791,R,ugm-3,9.410,R,ugm-3 (BAM)
08-01-2016,12:00,15.374,R,ugm-3 (Ref.eq),11.03767,R,ugm-3,19.60360,R,ugm-3,36.52779,R,ugm-3,6.480,R,ugm-3 (BAM)
08-01-2016,13:00,15.983,R,ugm-3 (Ref.eq),12.83534,R,ugm-3,20.03344,R,ugm-3,39.71402,R,ugm-3,6.970,R,ugm-3 (BAM)
08-01-2016,14:00,13.133,R,ugm-3 (Ref.eq),21.96745,R,ugm-3,32.77260,R,ugm-3,66.45555,R,ugm-3,7.950,R,ugm-3 (BAM)
08-01-2016,15:00,16.591,R,ugm-3 (Ref.eq),21.06846,R,ugm-3,34.89069,R,ugm-3,67.19521,R,ugm-3,7.700,R,ugm-3 (BAM)
08-01-2016,16:00,15.783,R,ugm-3 (Ref.eq),79.56496,R,ugm-3,85.33432,R,ugm-3,207.33221,R,ugm-3,8.680,R,ugm-3 (BAM)
08-01-2016,17:00,26.566,R,ugm-3 (Ref.eq),132.27274,R,ugm-3,118.08301,R,ugm-3,320.89838,R,ugm-3,11.860,R,ugm-3 (BAM)
08-01-2016,18:00,32.057,R,ugm-3 (Ref.eq),232.11536,R,ugm-3,156.73559,R,ugm-3,512.64084,R,ugm-3,23.820,R,ugm-3 (BAM)
08-01-2016,19:00,30.015,R,ugm-3 (Ref.eq),154.99542,R,ugm-3,135.92855,R,ugm-3,373.58488,R,ugm-3,18.200,R,ugm-3 (BAM)
08-01-2016,20:00,17.816,R,ugm-3 (Ref.eq),19.12703,R,ugm-3,53.11586,R,ugm-3,82.44357,R,ugm-3,10.880,R,ugm-3 (BAM)
08-01-2016,21:00,16.799,R,ugm-3 (Ref.eq),7.73014,R,ugm-3,34.23375,R,ugm-3,46.08647,R,ugm-3,10.630,R,ugm-3 (BAM)
08-01-2016,22:00,7.641,R,ugm-3 (Ref.eq),4.74567,R,ugm-3,23.22014,R,ugm-3,30.49673,R,ugm-3,8.190,R,ugm-3 (BAM)
08-01-2016,23:00,7.441,R,ugm-3 (Ref.eq),7.33475,R,ugm-3,33.41759,R,ugm-3,44.66405,R,ugm-3,7.700,R,ugm-3 (BAM)
08-01-2016,24:00,14.358,R,ugm-3 (Ref.eq),3.52331,R,ugm-3,15.76330,R,ugm-3,21.16564,R,ugm-3,8.680,R,ugm-3 (BAM)
09-01-2016,01:00,16.799,R,ugm-3 (Ref.eq),2.78023,R,ugm-3,8.17849,R,ugm-3,12.44145,R,ugm-3,8.190,R,ugm-3 (BAM)
09-01-2016,02:00,10.691,R,ugm-3 (Ref.eq),1.76150,R,ugm-3,7.36982,R,ugm-3,10.07075,R,ugm-3,7.220,R,ugm-3 (BAM)
09-01-2016,03:00,11.100,R,ugm-3 (Ref.eq),1.68978,R,ugm-3,6.79703,R,ugm-3,9.38798,R,ugm-3,6.240,R,ugm-3 (BAM)
09-01-2016,04:00,11.508,R,ugm-3 (Ref.eq),1.47400,R,ugm-3,6.90030,R,ugm-3,9.16040,R,ugm-3,6.240,R,ugm-3 (BAM)
09-01-2016,05:00,11.300,R,ugm-3 (Ref.eq),1.43814,R,ugm-3,5.76045,R,ugm-3,7.96556,R,ugm-3,3.070,R,ugm-3 (BAM)
09-01-2016,06:00,9.883,R,ugm-3 (Ref.eq),2.01345,R,ugm-3,10.34041,R,ugm-3,13.42766,R,ugm-3,0.140,R,ugm-3 (BAM)
09-01-2016,07:00,8.858,R,ugm-3 (Ref.eq),1.32993,R,ugm-3,5.98326,R,ugm-3,8.02246,R,ugm-3,4.290,R,ugm-3 (BAM)
09-01-2016,08:00,8.458,R,ugm-3 (Ref.eq),4.27855,R,ugm-3,9.71215,R,ugm-3,16.27251,R,ugm-3,6.970,R,ugm-3 (BAM)
09-01-2016,09:00,9.883,R,ugm-3 (Ref.eq),8.01796,R,ugm-3,18.71477,R,ugm-3,31.00880,R,ugm-3,6.000,R,ugm-3 (BAM)
09-01-2016,10:00,11.300,R,ugm-3 (Ref.eq),16.14287,R,ugm-3,30.83619,R,ugm-3,55.58825,R,ugm-3,6.480,R,ugm-3 (BAM)
09-01-2016,11:00,14.558,R,ugm-3 (Ref.eq),16.21521,R,ugm-3,40.45463,R,ugm-3,65.31761,R,ugm-3,6.000,R,ugm-3 (BAM)
09-01-2016,12:00,15.374,R,ugm-3 (Ref.eq),22.72269,R,ugm-3,47.77329,R,ugm-3,82.61426,R,ugm-3,6.240,R,ugm-3 (BAM)
09-01-2016,13:00,17.408,R,ugm-3 (Ref.eq),34.11958,R,ugm-3,61.98986,R,ugm-3,114.30582,R,ugm-3,6.480,R,ugm-3 (BAM)
09-01-2016,14:00,12.525,R,ugm-3 (Ref.eq),25.52693,R,ugm-3,60.82706,R,ugm-3,99.96781,R,ugm-3,4.290,R,ugm-3 (BAM)
09-01-2016,15:00,13.741,R,ugm-3 (Ref.eq),21.21283,R,ugm-3,53.44529,R,ugm-3,85.97118,R,ugm-3,4.770,R,ugm-3 (BAM)
09-01-2016,16:00,13.133,R,ugm-3 (Ref.eq),17.86882,R,ugm-3,42.35709,R,ugm-3,69.75557,R,ugm-3,5.020,R,ugm-3 (BAM)
09-01-2016,17:00,15.374,R,ugm-3 (Ref.eq),25.41935,R,ugm-3,67.81964,R,ugm-3,106.79543,R,ugm-3,6.480,R,ugm-3 (BAM)
09-01-2016,18:00,13.541,R,ugm-3 (Ref.eq),13.66230,R,ugm-3,34.24140,R,ugm-3,55.18997,R,ugm-3,8.680,R,ugm-3 (BAM)
09-01-2016,19:00,8.050,R,ugm-3 (Ref.eq),8.23312,R,ugm-3,23.73317,R,ugm-3,36.35710,R,ugm-3,5.750,R,ugm-3 (BAM)
09-01-2016,20:00,9.883,R,ugm-3 (Ref.eq),5.39333,R,ugm-3,13.40806,R,ugm-3,21.67771,R,ugm-3,5.750,R,ugm-3 (BAM)